#timestamp,LO_Frequency,Hit,StdDev 
1560949215.3,286047000.0,N
1560949235.1,286047000.7,N
1560949255.9,286046998.1,N
1560949275.7,286047000.8,N
1560949295.5,286046999.9,N
1560949315.4,286047002.4,N
1560949335.2,286047000.3,N
1560949355.1,286047000.3,N
1560949356.0,286047000.3,N
1560949375.8,286047000.2,N
1560949395.6,286047000.6,N
1560949415.5,286046999.7,N
1560949465.3,286047001.4,E
1560949475.3,286047001.5,N
1560949495.1,286047002.4,P
1560949515.8,286047002.8,P
1560949535.7,286046999.8,N
1560949555.5,286046999.7,N
1560949575.3,286047002.8,N
1560949595.2,286047002.8,N
1560949615.0,286047001.9,N
1560949615.9,286047001.9,N
1560949635.8,286047000.3,N
1560949655.6,286047000.5,N
1560949675.4,286046999.7,N
1560949695.3,286047000.0,N
1560949715.1,286046999.7,N
1560949735.9,286047001.6,N
1560949755.7,286046999.8,N
1560949775.5,286047002.8,N
1560949795.4,286047002.3,N
1560949815.2,286047002.5,N
1560949835.0,286047001.6,N
1560949835.9,286047001.6,N
1560949855.8,286047002.0,N
1560949875.6,286047002.5,N
1560949895.5,286047000.3,N
1560949915.3,286047000.8,N
1560949935.1,286047000.2,N
1560949955.9,286047002.4,N
1560949975.7,286047002.1,N
1560949995.5,286047002.8,N
1560950015.4,286047002.2,N
1560950035.2,286047002.7,N
1560950055.1,286047002.6,N
1560950056.0,286047002.6,N
1560950075.8,286047001.8,N
1560950095.6,286047001.5,N
1560950115.5,286047001.9,N
1560950135.3,286047001.9,N
1560950155.1,286047001.5,N
1560950175.9,286047001.3,N
1560950195.7,286047003.1,Y
1560950215.6,286047002.2,P
1560950235.4,286047002.4,P
1560950255.2,286047002.3,P
1560950275.1,286046999.7,N
1560950276.0,286046999.7,N
1560950295.8,286046999.7,N
1560950315.6,286047000.2,N
1560950335.5,286046999.9,N
1560950355.3,286047000.5,N
1560950375.2,286047002.0,N
1560950395.9,286047002.5,N
1560950415.7,286046999.8,N
1560950435.6,286047000.2,N
1560950455.4,286046999.8,N
1560950475.3,286047002.0,N
1560950495.1,286047002.2,N
1560950496.0,286047002.2,N
1560950515.8,286047002.1,N
1560950535.7,286047001.4,N
1560950555.5,286047002.6,N
1560950575.3,286047002.5,N
1560950595.2,286047002.1,N
1560950615.0,286047001.8,N
1560950615.9,286047001.8,N
1560950635.8,286047004.2,Y
1560950655.6,286047000.0,P
1560950675.4,286047000.0,N
1560950695.3,286046998.1,P
1560950715.1,286046999.6,N
1560950735.9,286046999.6,N
1560950755.7,286046999.4,N
1560950775.5,286046998.7,N
1560950795.4,286046999.2,N
1560950815.2,286046998.5,N
1560950835.0,286046999.2,N
1560950835.9,286046999.2,N
1560950855.8,286046999.2,N
1560950875.6,286046997.1,Y
1560950895.5,286046997.3,P
1560950915.3,286046995.1,P
1560950935.1,286046997.5,N
1560950955.9,286046997.1,N
1560950975.7,286046999.2,N
1560950995.5,286046996.9,N
1560951015.4,286046999.1,N
1560951035.2,286046999.6,N
1560951055.1,286046996.5,N
1560951056.0,286046996.5,N
1560951075.8,286046998.9,N
1560951095.6,286046999.4,N
1560951115.5,286046999.2,N
1560951135.3,286046999.5,N
1560951155.1,286046997.2,N
1560951175.9,286046999.5,N
1560951195.7,286046997.3,N
1560951215.5,286046997.0,N
1560951235.4,286046997.2,N
1560951255.2,286046997.7,N
1560951275.1,286046997.1,N
1560951276.0,286046997.1,N
1560951295.8,286046997.8,N
1560951315.7,286046995.1,Y
1560951335.5,286046996.5,P
1560951355.3,286046998.6,N
1560951375.2,286046999.6,N
1560951395.0,286046998.7,N
1560951395.9,286046998.7,N
1560951415.7,286046998.2,N
1560951435.6,286046999.2,N
1560951455.4,286046999.2,N
1560951475.3,286046996.8,Y
1560951495.1,286046998.2,P
1560951515.8,286046996.5,P
1560951535.7,286046996.5,P
1560951555.5,286046998.9,N
1560951575.4,286046998.9,N
1560951595.2,286046998.1,N
1560951615.0,286046998.3,N
1560951615.9,286046998.3,N
1560951635.8,286046998.4,N
1560951655.6,286046998.5,N
1560951675.5,286046998.5,N
1560951695.3,286046998.7,N
1560951715.1,286046998.1,N
1560951735.9,286047000.8,N
1560951755.7,286047000.3,N
1560951775.2,286047000.0,N
1560951795.0,286047002.4,N
1560951795.9,286047002.4,N
1560951815.8,286047000.4,N
1560951835.6,286047000.3,N
1560951855.5,286047002.6,N
1560951875.3,286047002.8,N
1560951895.1,286047002.4,N
1560951915.9,286047000.0,N
1560951935.7,286046999.7,N
1560951955.5,286047002.8,N
1560951975.4,286047000.6,N
1560951995.2,286047002.5,N
1560952015.0,286046999.9,N
1560952016.0,286046999.9,N
1560952035.8,286047002.6,N
1560952055.6,286047002.5,N
1560952075.5,286047000.0,N
1560952095.3,286046999.8,N
1560952115.1,286047000.4,N
1560952135.9,286047000.3,N
1560952155.7,286047002.7,N
1560952175.6,286046999.9,N
1560952195.4,286047002.5,N
1560952215.2,286047000.2,N
1560952235.0,286047002.3,N
1560952236.0,286047002.3,N
1560952255.8,286047002.2,N
1560952275.6,286047002.1,N
1560952295.5,286047002.4,N
1560952315.3,286047002.4,N
1560952335.1,286047002.6,N
1560952355.9,286047002.5,N
1560952375.7,286047002.2,N
1560952395.6,286047002.1,N
1560952415.4,286047002.6,N
1560952435.2,286047001.9,N
1560952455.1,286047002.4,N
1560952456.0,286047002.4,N
1560952475.8,286047002.2,N
1560952495.6,286047001.5,N
1560952515.5,286047001.7,N
1560952535.3,286047002.1,N
1560952555.2,286047001.8,N
1560952575.9,286047004.4,Y
1560952595.7,286047001.4,P
1560952615.6,286047001.5,P
1560952635.4,286047001.9,P
1560952655.3,286047002.7,Y
1560952675.1,286047000.8,P
1560952676.0,286047000.8,N
1560952695.8,286047001.2,N
1560952715.7,286047000.4,N
1560952735.5,286046999.7,N
1560952755.3,286047001.0,N
1560952775.2,286047001.1,N
1560952795.0,286047000.5,N
1560952795.9,286047000.5,N
